Location: Chèvreville
(49.1099°N, 2.8495°E)
Time: 16:45:00
(UTC+00:00)

IRIDIUM 106 - Visible Passes

Search period start: 30 September 2023 00:00
Search period end: 10 October 2023 00:00
Orbit: 776 x 779 km, 86.4° (Epoch: 29 September)

Date Brightness Start Highest point End Pass type
(mag) Time Alt. Az. Time Alt. Az. Time Alt. Az.
30 Sep 4.7 19:44:53 10° N 19:49:28 46° ENE 19:49:28 46° ENE visible
30 Sep 6.2 21:26:07 10° NNW 21:29:58 26° WNW 21:29:58 26° WNW visible
01 Oct 5.2 19:11:41 10° NNE 19:16:11 28° ENE 19:16:11 28° ENE visible
01 Oct 5.4 20:52:09 10° NNW 20:56:40 43° WNW 20:56:40 43° WNW visible
02 Oct 5.8 18:38:52 10° NNE 18:42:18 17° ENE 18:42:54 17° ENE visible
02 Oct 4.4 20:18:26 10° N 20:23:24 73° WNW 20:23:24 73° WNW visible
02 Oct 7.1 22:01:56 10° NW 22:03:25 11° WNW 22:03:53 11° WNW visible
03 Oct 6.2 18:07:43 10° ENE 18:08:16 10° ENE 18:08:49 10° ENE visible
03 Oct 4.2 19:44:54 10° N 19:50:07 65° E 19:50:08 65° E visible
03 Oct 6.6 21:26:41 10° NNW 21:30:18 19° WNW 21:30:38 19° W visible
04 Oct 4.8 19:11:33 10° N 19:16:27 38° ENE 19:16:56 37° E visible
04 Oct 5.8 20:52:29 10° NNW 20:57:04 32° W 20:57:24 31° W visible
05 Oct 5.4 18:38:29 10° NNE 18:42:39 23° ENE 18:43:44 22° E visible
05 Oct 4.9 20:18:37 10° NNW 20:23:43 54° W 20:24:13 52° WSW visible
06 Oct 6.0 18:05:56 10° NE 18:08:42 14° ENE 18:10:35 12° E visible
06 Oct 4.2 19:44:58 10° N 19:50:15 89° E 19:51:05 64° S visible
06 Oct 6.9 21:27:33 10° NW 21:30:10 14° WNW 21:31:33 13° W visible
07 Oct 4.4 19:11:31 10° N 19:16:39 53° E 19:17:58 42° SE visible
07 Oct 6.4 20:52:56 10° NNW 20:57:01 23° W 20:58:27 21° WSW visible
08 Oct 5.0 18:38:16 10° NNE 18:42:56 31° ENE 18:44:55 24° ESE visible
08 Oct 5.5 20:18:54 10° NNW 20:23:44 39° W 20:25:25 30° SW visible
09 Oct 5.6 18:05:21 10° NNE 18:09:04 19° ENE 18:11:56 13° ESE visible
09 Oct 4.6 19:45:08 10° N 19:50:20 67° W 19:52:26 36° SSW visible
